軌道要素
Epoch 2014 Aug. 11.0 TT = JDT 2456880.5
T 2014 Aug. 24.57690 TT MPCW
q 1.3817618 (2000.0) P Q
n 0.16882620 Peri. 329.72101 +0.86200898 -0.50515895
a 3.2422225 Node 60.67864 +0.47417039 +0.77439050
e 0.5738226 Incl. 2.75399 +0.17917296 +0.38096429
P 5.84
From 1218 observations 2002 Oct. 4-2015 Jan. 28, mean residual 0".5.
Nongravitational parameters A1 = +0.02, A2 = +0.0304.
|